CST,Max TemperatureF,Mean TemperatureF,Min TemperatureF,Max Dew PointF,MeanDew PointF,Min DewpointF,Max Humidity, Mean Humidity, Min Humidity, Max Sea Level PressureIn, Mean Sea Level PressureIn, Min Sea Level PressureIn, Max VisibilityMiles, Mean VisibilityMiles, Min VisibilityMiles, Max Wind SpeedMPH, Mean Wind SpeedMPH, Max Gust SpeedMPH,PrecipitationIn, CloudCover, Events, WindDirDegrees
2012-11-1,76,64,52,58,49,42,93,62,31,30.09,30.02,29.98,10,10,8,9,5,13,T,2,Rain,317
2012-11-2,82,66,49,65,58,47,96,72,47,30.09,30.05,30.00,10,6,1,13,5,31,0.00,3,Fog,240
2012-11-3,83,72,60,64,61,56,100,70,40,30.14,30.09,30.05,10,6,1,10,4,14,0.00,1,,257
2012-11-4,78,68,58,64,60,56,100,77,54,30.13,30.09,30.03,10,6,0,14,4,21,0.01,5,Fog-Rain,314
2012-11-5,72,61,50,54,47,36,93,62,30,30.09,30.01,29.91,10,10,7,18,6,25,0.20,5,Rain-Thunderstorm,51
2012-11-6,63,53,43,49,46,41,100,78,56,30.06,30.00,29.93,10,9,5,16,8,20,0.00,4,,329
2012-11-7,66,53,39,47,39,35,100,66,32,30.14,30.05,29.97,10,9,3,22,7,29,0.00,1,Fog,304
2012-11-8,65,52,38,41,37,34,89,62,34,30.27,30.21,30.15,10,10,10,12,4,17,0.00,0,,3
2012-11-9,71,54,37,51,43,35,92,64,36,30.30,30.24,30.21,10,10,6,9,3,13,0.00,1,,138
2012-11-10,75,61,47,57,51,44,93,69,44,30.31,30.25,30.22,10,10,7,18,7,24,0.00,2,,115
2012-11-11,78,69,60,62,59,55,90,71,52,30.24,30.20,30.14,10,10,10,26,12,32,0.00,5,,117
2012-11-12,71,59,46,64,54,37,93,80,66,30.34,30.24,30.11,10,7,1,21,11,29,0.08,6,Rain,339
2012-11-13,60,50,39,37,30,26,76,52,28,30.39,30.32,30.26,10,10,10,23,13,30,0.00,3,,3
2012-11-14,65,52,38,40,35,30,83,59,34,30.31,30.25,30.20,10,10,10,13,6,15,0.00,3,,348
2012-11-15,64,52,40,45,43,38,93,71,48,30.29,30.25,30.19,10,7,0,15,5,21,0.00,3,Fog,24
2012-11-16,65,52,39,44,42,38,96,72,48,30.30,30.26,30.22,10,9,6,17,5,22,0.00,1,,21
2012-11-17,65,53,41,43,39,36,93,65,36,30.36,30.31,30.26,10,10,8,16,7,18,0.00,0,,23
2012-11-18,68,54,40,43,39,35,77,57,37,30.33,30.29,30.25,10,10,10,13,6,17,0.00,1,,23
2012-11-19,72,59,45,48,44,40,93,67,40,30.29,30.23,30.17,10,10,10,9,2,26,0.00,2,,13
2012-11-20,70,56,41,48,44,41,96,66,36,30.22,30.16,30.12,10,10,7,12,3,18,0.00,3,,355
2012-11-21,76,59,41,48,46,39,100,69,38,30.21,30.17,30.12,10,10,8,13,3,18,0.00,1,,326
2012-11-22,75,59,42,50,46,39,93,63,33,30.25,30.20,30.17,10,8,2,10,1,12,0.00,2,,194
2012-11-23,75,58,41,54,48,42,100,71,41,30.27,30.21,30.14,10,7,0,15,6,21,0.00,5,Fog,311
2012-11-24,61,47,32,46,32,28,77,53,29,30.29,30.22,30.17,10,10,10,15,8,21,0.00,1,,347
2012-11-25,64,47,29,42,32,26,92,59,25,30.25,30.17,30.13,10,10,10,10,3,12,0.00,1,,146
2012-11-26,70,57,44,60,52,41,97,80,63,30.18,30.14,30.12,10,10,10,16,6,18,T,5,,135
2012-11-27,65,57,48,62,56,46,93,89,84,30.30,30.19,30.08,10,7,0,23,6,30,1.14,8,Fog-Rain,360
2012-11-28,62,52,42,46,38,32,93,64,34,30.42,30.35,30.30,10,9,3,16,9,20,0.00,3,,5
2012-11-29,64,51,37,46,39,32,85,61,36,30.40,30.32,30.27,10,10,10,12,4,14,0.00,1,,57
2012-11-30,73,60,46,54,49,42,100,75,49,30.30,30.25,30.20,10,9,4,8,2,13,0.00,3,Fog,64